�������l�o���
Date,Time,MP-1(��Sv/h),MP-2(��Sv/h),MP-3(��Sv/h),MP-4(��Sv/h),MP-5(��Sv/h),MP-6(��Sv/h),MP-7(��Sv/h),MP-8(��Sv/h),����,����(m/s),���J
2021/05/08,00:00,0.627,0.929,0.586,1.139,0.810,0.373,0.652,0.608,��쐼,5.6,��
2021/05/08,00:10,0.626,0.928,0.587,1.142,0.808,0.374,0.652,0.608,��,7.0,��
2021/05/08,00:20,0.625,0.929,0.585,1.139,0.808,0.374,0.651,0.609,��쐼,6.6,��
2021/05/08,00:30,0.625,0.930,0.584,1.140,0.807,0.374,0.652,0.607,��,4.9,��
2021/05/08,00:40,0.624,0.927,0.585,1.141,0.808,0.375,0.651,0.608,��쐼,4.4,��
2021/05/08,00:50,0.625,0.928,0.586,1.139,0.808,0.375,0.651,0.609,��쐼,3.7,��
2021/05/08,01:00,0.624,0.926,0.584,1.139,0.806,0.374,0.652,0.607,��쐼,3.9,��
2021/05/08,01:10,0.625,0.927,0.584,1.140,0.805,0.373,0.652,0.608,��쐼,3.2,��
2021/05/08,01:20,0.626,0.930,0.586,1.139,0.807,0.375,0.651,0.609,�쐼,3.3,��
2021/05/08,01:30,0.625,0.927,0.587,1.140,0.807,0.375,0.651,0.607,��쐼,2.0,��
2021/05/08,01:40,0.627,0.930,0.585,1.140,0.806,0.375,0.650,0.607,��쐼,2.6,��
2021/05/08,01:50,0.626,0.928,0.584,1.138,0.809,0.375,0.653,0.609,�쐼,3.3,��
2021/05/08,02:00,0.624,0.930,0.587,1.141,0.807,0.374,0.651,0.608,���쐼,3.0,��
2021/05/08,02:10,0.625,0.927,0.587,1.140,0.806,0.375,0.652,0.608,���쐼,3.3,��
2021/05/08,02:20,0.626,0.927,0.586,1.137,0.806,0.375,0.651,0.609,��,2.5,��
2021/05/08,02:30,0.624,0.925,0.584,1.139,0.805,0.374,0.652,0.608,���k��,2.0,��
2021/05/08,02:40,0.624,0.926,0.586,1.140,0.807,0.374,0.651,0.608,���k��,1.2,��
2021/05/08,02:50,0.625,0.929,0.585,1.143,0.807,0.373,0.652,0.609,�k��,1.4,��
2021/05/08,03:00,0.624,0.928,0.586,1.138,0.807,0.374,0.652,0.610,�k��,0.6,��
2021/05/08,03:10,0.624,0.927,0.585,1.138,0.807,0.375,0.651,0.608,���k��,1.7,��
2021/05/08,03:20,0.625,0.927,0.586,1.141,0.805,0.373,0.651,0.610,���k��,1.1,��
2021/05/08,03:30,0.624,0.927,0.586,1.138,0.806,0.374,0.651,0.609,�k��,1.5,��
2021/05/08,03:40,0.623,0.927,0.585,1.140,0.807,0.372,0.652,0.610,��,2.0,��
2021/05/08,03:50,0.626,0.927,0.584,1.140,0.807,0.378,0.650,0.609,���k��,3.4,��
2021/05/08,04:00,0.625,0.926,0.584,1.139,0.803,0.374,0.650,0.608,���k��,5.1,��
2021/05/08,04:10,0.626,0.929,0.585,1.140,0.806,0.375,0.650,0.608,���k��,5.2,��
2021/05/08,04:20,0.624,0.926,0.586,1.140,0.807,0.375,0.651,0.608,���k��,5.1,��
2021/05/08,04:30,0.624,0.929,0.585,1.139,0.806,0.374,0.651,0.608,��,6.5,��
2021/05/08,04:40,0.624,0.926,0.584,1.142,0.806,0.374,0.651,0.607,���k��,8.4,��
2021/05/08,04:50,0.627,0.928,0.584,1.140,0.805,0.375,0.651,0.609,��,8.6,��
2021/05/08,05:00,0.625,0.926,0.586,1.142,0.806,0.373,0.652,0.609,��,6.4,��
2021/05/08,05:10,0.625,0.925,0.584,1.139,0.805,0.375,0.651,0.607,��,5.8,��
2021/05/08,05:20,0.625,0.926,0.585,1.141,0.806,0.373,0.651,0.609,��,5.1,��
2021/05/08,05:30,0.624,0.926,0.586,1.141,0.807,0.374,0.652,0.608,��,5.7,��
2021/05/08,05:40,0.626,0.927,0.585,1.141,0.805,0.375,0.653,0.609,���쐼,4.9,��
2021/05/08,05:50,0.626,0.926,0.586,1.141,0.806,0.374,0.650,0.610,���쐼,4.5,��
2021/05/08,06:00,0.626,0.927,0.586,1.141,0.807,0.375,0.651,0.609,���쐼,4.3,��
2021/05/08,06:10,0.625,0.926,0.586,1.141,0.806,0.374,0.653,0.609,�쐼,5.6,��
2021/05/08,06:20,0.626,0.928,0.588,1.143,0.808,0.376,0.651,0.609,���쐼,4.9,��
2021/05/08,06:30,0.627,0.928,0.587,1.141,0.807,0.375,0.653,0.610,��,3.3,��
2021/05/08,06:40,0.626,0.926,0.586,1.141,0.809,0.374,0.653,0.609,���쐼,4.3,��
2021/05/08,06:50,0.626,0.925,0.586,1.145,0.808,0.374,0.651,0.609,���쐼,3.5,��
2021/05/08,07:00,0.627,0.927,0.586,1.142,0.806,0.374,0.653,0.609,���쐼,4.2,��
2021/05/08,07:10,0.627,0.927,0.586,1.142,0.808,0.373,0.654,0.608,��쐼,4.5,��
2021/05/08,07:20,0.626,0.926,0.586,1.142,0.806,0.372,0.653,0.611,��쐼,3.2,��
2021/05/08,07:30,0.627,0.924,0.585,1.143,0.808,0.372,0.652,0.609,�쐼,4.7,��
2021/05/08,07:40,0.627,0.928,0.587,1.144,0.809,0.373,0.652,0.610,�쐼,3.4,��
2021/05/08,07:50,0.627,0.926,0.588,1.143,0.807,0.373,0.652,0.610,��쐼,3.4,��
2021/05/08,08:00,0.627,0.927,0.588,1.142,0.808,0.376,0.653,0.609,��,4.1,��
2021/05/08,08:10,0.625,0.928,0.589,1.144,0.807,0.373,0.654,0.608,�쐼,4.1,��
2021/05/08,08:20,0.627,0.929,0.590,1.145,0.810,0.372,0.652,0.606,�쐼,4.5,��
2021/05/08,08:30,0.626,0.929,0.588,1.143,0.809,0.373,0.652,0.607,���쐼,6.8,��
2021/05/08,08:40,0.627,0.927,0.588,1.146,0.810,0.375,0.651,0.607,��,8.1,��
2021/05/08,08:50,0.626,0.926,0.589,1.148,0.808,0.374,0.652,0.607,��,10.2,��
2021/05/08,09:00,0.626,0.928,0.587,1.145,0.810,0.375,0.653,0.606,��,11.6,��
2021/05/08,09:10,0.628,0.929,0.587,1.145,0.810,0.373,0.652,0.609,��,7.4,��
2021/05/08,09:20,0.631,0.929,0.588,1.145,0.810,0.373,0.651,0.607,��,3.7,��
2021/05/08,09:30,0.628,0.927,0.586,1.142,0.809,0.375,0.653,0.607,��,6.4,��
2021/05/08,09:40,0.627,0.929,0.589,1.143,0.810,0.374,0.654,0.608,���쐼,7.7,��
2021/05/08,09:50,0.628,0.929,0.587,1.145,0.809,0.373,0.653,0.607,��,6.5,��
2021/05/08,10:00,0.628,0.930,0.587,1.143,0.809,0.374,0.654,0.608,��,8.7,��
2021/05/08,10:10,0.629,0.931,0.588,1.146,0.810,0.374,0.653,0.607,��,8.0,��
2021/05/08,10:20,0.629,0.928,0.587,1.144,0.811,0.375,0.653,0.608,��,5.6,��
2021/05/08,10:30,0.629,0.929,0.587,1.144,0.811,0.375,0.654,0.608,���쐼,4.3,��
2021/05/08,10:40,0.629,0.928,0.587,1.145,0.809,0.375,0.654,0.608,��,5.5,��
2021/05/08,10:50,0.630,0.930,0.589,1.144,0.811,0.376,0.653,0.608,���k��,5.0,��
2021/05/08,11:00,0.629,0.931,0.588,1.145,0.813,0.375,0.654,0.609,��,5.7,��
2021/05/08,11:10,0.631,0.931,0.588,1.145,0.811,0.377,0.653,0.610,��,6.3,��
2021/05/08,11:20,0.629,0.931,0.589,1.147,0.812,0.376,0.654,0.607,��,6.5,��
2021/05/08,11:30,0.631,0.935,0.588,1.144,0.811,0.376,0.652,0.608,���k��,7.5,��
2021/05/08,11:40,0.632,0.934,0.589,1.145,0.812,0.376,0.654,0.609,��,6.9,��
2021/05/08,11:50,0.630,0.935,0.589,1.144,0.811,0.376,0.655,0.608,���k��,7.3,��
2021/05/08,12:00,0.632,0.932,0.589,1.146,0.814,0.375,0.654,0.608,��,6.7,��
2021/05/08,12:10,0.632,0.934,0.590,1.147,0.814,0.377,0.655,0.608,���쐼,5.8,��
2021/05/08,12:20,0.631,0.934,0.590,1.147,0.814,0.376,0.654,0.609,��,7.0,��
2021/05/08,12:30,0.631,0.932,0.591,1.148,0.818,0.377,0.655,0.609,���k��,5.6,��
2021/05/08,12:40,0.632,0.936,0.591,1.147,0.814,0.377,0.654,0.609,���k��,2.3,��
2021/05/08,12:50,0.631,0.934,0.591,1.150,0.817,0.378,0.654,0.610,��,4.3,��
2021/05/08,13:00,0.631,0.937,0.592,1.149,0.817,0.376,0.654,0.610,��,7.3,��
2021/05/08,13:10,0.631,0.934,0.590,1.146,0.817,0.375,0.655,0.608,��,8.5,��
2021/05/08,13:20,0.631,0.933,0.590,1.147,0.815,0.376,0.654,0.608,��쓌,11.6,��
2021/05/08,13:30,0.629,0.935,0.592,1.147,0.817,0.375,0.655,0.607,��쓌,9.5,��
2021/05/08,13:40,0.631,0.936,0.590,1.147,0.818,0.375,0.653,0.608,��,10.2,��
2021/05/08,13:50,0.630,0.937,0.592,1.146,0.817,0.374,0.654,0.608,��,11.0,��
2021/05/08,14:00,0.630,0.936,0.591,1.147,0.817,0.376,0.653,0.610,��쓌,10.8,��
2021/05/08,14:10,0.631,0.936,0.590,1.147,0.816,0.377,0.654,0.609,��,11.3,��
2021/05/08,14:20,0.629,0.937,0.591,1.147,0.816,0.377,0.652,0.609,��,9.9,��
2021/05/08,14:30,0.629,0.937,0.590,1.149,0.818,0.375,0.654,0.610,��,9.9,��
2021/05/08,14:40,0.631,0.935,0.590,1.151,0.816,0.375,0.654,0.608,��,10.5,��
2021/05/08,14:50,0.631,0.936,0.592,1.150,0.816,0.376,0.654,0.609,��,8.5,��
2021/05/08,15:00,0.632,0.938,0.591,1.150,0.818,0.376,0.653,0.608,��쓌,9.9,��
2021/05/08,15:10,0.631,0.938,0.590,1.148,0.816,0.376,0.657,0.609,��,8.9,��
2021/05/08,15:20,0.632,0.939,0.590,1.150,0.817,0.378,0.653,0.609,��,8.3,��
2021/05/08,15:30,0.632,0.936,0.592,1.150,0.819,0.376,0.653,0.609,��쓌,10.9,��
2021/05/08,15:40,0.631,0.936,0.591,1.150,0.817,0.376,0.653,0.609,��쓌,13.1,��
2021/05/08,15:50,0.631,0.939,0.591,1.151,0.817,0.376,0.653,0.609,��,9.8,��
2021/05/08,16:00,0.632,0.939,0.589,1.151,0.816,0.376,0.654,0.609,��,9.5,��
2021/05/08,16:10,0.632,0.939,0.591,1.149,0.819,0.377,0.655,0.608,��,8.2,��
2021/05/08,16:20,0.632,0.938,0.590,1.152,0.818,0.377,0.652,0.610,��,7.9,��
2021/05/08,16:30,0.632,0.938,0.591,1.151,0.816,0.377,0.654,0.609,��,6.5,��
2021/05/08,16:40,0.632,0.938,0.591,1.153,0.819,0.377,0.655,0.610,��,7.7,��
2021/05/08,16:50,0.629,0.938,0.590,1.154,0.816,0.376,0.653,0.610,��쓌,8.5,��
2021/05/08,17:00,0.630,0.939,0.590,1.153,0.816,0.374,0.655,0.610,��,9.1,��
2021/05/08,17:10,0.630,0.939,0.588,1.151,0.817,0.375,0.654,0.609,��쓌,9.2,��
2021/05/08,17:20,0.630,0.940,0.589,1.152,0.817,0.374,0.654,0.610,��쓌,9.7,��
2021/05/08,17:30,0.629,0.937,0.590,1.150,0.816,0.376,0.655,0.608,��,8.7,��
2021/05/08,17:40,0.632,0.937,0.590,1.153,0.817,0.377,0.654,0.609,��,7.6,��
2021/05/08,17:50,0.629,0.938,0.590,1.154,0.816,0.375,0.655,0.611,��,7.5,��
2021/05/08,18:00,0.631,0.936,0.590,1.152,0.818,0.375,0.654,0.610,��,6.7,��
2021/05/08,18:10,0.632,0.939,0.591,1.154,0.817,0.374,0.654,0.612,��,5.4,��
2021/05/08,18:20,0.631,0.939,0.590,1.152,0.815,0.375,0.653,0.612,��,6.7,��
2021/05/08,18:30,0.631,0.938,0.592,1.152,0.817,0.375,0.655,0.612,��,5.9,��
2021/05/08,18:40,0.630,0.941,0.591,1.151,0.818,0.377,0.655,0.611,��,6.3,��
2021/05/08,18:50,0.631,0.942,0.590,1.154,0.817,0.375,0.654,0.610,��,6.1,��
2021/05/08,19:00,0.633,0.943,0.591,1.153,0.818,0.375,0.655,0.611,��,6.3,��
2021/05/08,19:10,0.631,0.943,0.590,1.153,0.818,0.375,0.654,0.611,��쓌,7.1,��
2021/05/08,19:20,0.631,0.944,0.591,1.151,0.818,0.375,0.656,0.611,��쓌,8.1,��
2021/05/08,19:30,0.631,0.943,0.591,1.152,0.818,0.377,0.655,0.611,��,6.5,��
2021/05/08,19:40,0.632,0.941,0.592,1.153,0.816,0.376,0.656,0.611,��쓌,8.0,��
2021/05/08,19:50,0.633,0.943,0.591,1.155,0.819,0.375,0.655,0.611,��쓌,6.7,��
2021/05/08,20:00,0.632,0.941,0.591,1.153,0.819,0.374,0.656,0.612,��,6.2,��
2021/05/08,20:10,0.630,0.941,0.592,1.154,0.817,0.376,0.654,0.613,��,4.5,��
2021/05/08,20:20,0.633,0.941,0.592,1.151,0.818,0.376,0.654,0.612,��쐼,3.4,��
2021/05/08,20:30,0.633,0.941,0.590,1.153,0.819,0.376,0.655,0.613,��쐼,2.6,��
2021/05/08,20:40,0.632,0.941,0.593,1.154,0.818,0.376,0.656,0.611,��쓌,3.9,��
2021/05/08,20:50,0.632,0.940,0.591,1.151,0.817,0.376,0.655,0.613,��쓌,4.7,��
2021/05/08,21:00,0.633,0.940,0.591,1.154,0.819,0.376,0.655,0.612,��쓌,4.3,��
2021/05/08,21:10,0.633,0.942,0.590,1.153,0.818,0.375,0.654,0.611,��,3.6,��
2021/05/08,21:20,0.633,0.940,0.590,1.152,0.819,0.377,0.655,0.611,��,5.4,��
2021/05/08,21:30,0.633,0.943,0.590,1.153,0.821,0.377,0.654,0.611,��,5.6,��
2021/05/08,21:40,0.631,0.943,0.590,1.151,0.819,0.377,0.655,0.613,��,5.4,��
2021/05/08,21:50,0.633,0.942,0.591,1.152,0.819,0.376,0.653,0.612,��,5.1,��
2021/05/08,22:00,0.632,0.941,0.592,1.152,0.819,0.376,0.656,0.612,��,5.0,��
2021/05/08,22:10,0.632,0.941,0.593,1.151,0.818,0.376,0.656,0.612,��,3.2,��
2021/05/08,22:20,0.631,0.941,0.592,1.153,0.820,0.377,0.654,0.611,��,3.5,��
2021/05/08,22:30,0.631,0.942,0.592,1.151,0.818,0.376,0.656,0.612,��,2.0,��
2021/05/08,22:40,0.633,0.940,0.591,1.154,0.821,0.377,0.655,0.611,��쓌,2.6,��
2021/05/08,22:50,0.633,0.941,0.593,1.155,0.820,0.377,0.654,0.612,��쐼,1.2,��
2021/05/08,23:00,0.633,0.940,0.592,1.154,0.819,0.378,0.656,0.610,�쐼,1.1,��
2021/05/08,23:10,0.633,0.940,0.592,1.153,0.818,0.375,0.656,0.611,��,1.7,��
2021/05/08,23:20,0.633,0.940,0.592,1.152,0.820,0.376,0.654,0.613,���k��,2.9,��
2021/05/08,23:30,0.633,0.943,0.593,1.152,0.820,0.377,0.656,0.612,�k��,2.6,��
2021/05/08,23:40,0.632,0.942,0.593,1.153,0.820,0.377,0.654,0.613,���k��,1.5,��
2021/05/08,23:50,0.634,0.940,0.591,1.151,0.820,0.377,0.655,0.613,���k��,1.5,��
